| time (UTC) | temp C | wind direction | speed KPH | gust KPH | rain 1hr cm | rain 24hr cm | rain mn cm | humidity % | barometer mb |
| 20260503052004 | 12 | 247 | 0.0 | 1.6 | 0.00 | 0.00 | 0.00 | 33 | 1012.1 |
| 20260503051002 | 12 | 247 | 0.0 | 3.2 | 0.00 | 0.00 | 0.00 | 33 | 1012.0 |
| 20260503050005 | 12 | 247 | 0.0 | 3.2 | 0.00 | 0.00 | 0.00 | 33 | 1012.0 |
| 20260503045001 | 12 | 246 | 0.0 | 3.2 | 0.00 | 0.00 | 0.00 | 33 | 1011.9 |
| 20260503044004 | 12 | 246 | 0.0 | 6.4 | 0.00 | 0.00 | 0.00 | 32 | 1011.9 |
| 20260503043004 | 12 | 247 | 0.0 | 4.8 | 0.00 | 0.00 | 0.00 | 32 | 1011.9 |
| 20260503042004 | 13 | 248 | 0.0 | 3.2 | 0.00 | 0.00 | 0.00 | 31 | 1011.8 |
| 20260503041004 | 13 | 248 | 0.0 | 3.2 | 0.00 | 0.00 | 0.00 | 31 | 1011.8 |
| 20260503040000 | 13 | 248 | 1.6 | 4.8 | 0.00 | 0.00 | 0.00 | 31 | 1011.7 |
| 20260503035004 | 13 | 248 | 1.6 | 4.8 | 0.00 | 0.00 | 0.00 | 31 | 1011.6 |
| 20260503034002 | 13 | 248 | 0.0 | 4.8 | 0.00 | 0.00 | 0.00 | 31 | 1011.5 |
| 20260503033006 | 14 | 248 | 0.0 | 1.6 | 0.00 | 0.00 | 0.00 | 31 | 1011.5 |
| 20260503032005 | 14 | 248 | 0.0 | 4.8 | 0.00 | 0.00 | 0.00 | 29 | 1011.4 |
| 20260503031004 | 15 | 248 | 0.0 | 4.8 | 0.00 | 0.00 | 0.00 | 29 | 1011.3 |
| 20260503030004 | 15 | 248 | 0.0 | 3.2 | 0.00 | 0.00 | 0.00 | 28 | 1011.3 |
| 20260503025002 | 16 | 248 | 0.0 | 4.8 | 0.00 | 0.00 | 0.00 | 28 | 1011.2 |
| 20260503024000 | 16 | 248 | 1.6 | 3.2 | 0.00 | 0.00 | 0.00 | 27 | 1011.1 |
| 20260503023002 | 16 | 248 | 3.2 | 8.0 | 0.00 | 0.00 | 0.00 | 26 | 1011.2 |
| 20260503022004 | 17 | 236 | 3.2 | 8.0 | 0.00 | 0.00 | 0.00 | 25 | 1011.1 |
| 20260503021002 | 17 | 241 | 3.2 | 9.7 | 0.00 | 0.00 | 0.00 | 25 | 1011.2 |
| 20260503020004 | 17 | 300 | 1.6 | 6.4 | 0.00 | 0.00 | 0.00 | 25 | 1011.3 |
| 20260503015004 | 18 | 305 | 3.2 | 9.7 | 0.00 | 0.00 | 0.00 | 23 | 1011.3 |
| 20260503014004 | 18 | 284 | 1.6 | 8.0 | 0.00 | 0.00 | 0.00 | 22 | 1011.4 |
| 20260503013000 | 19 | 238 | 3.2 | 8.0 | 0.00 | 0.00 | 0.00 | 22 | 1011.5 |
| 20260503012004 | 20 | 33 | 1.6 | 6.4 | 0.00 | 0.00 | 0.00 | 27 | 1011.4 |
| 20260503011000 | 20 | 51 | 1.6 | 6.4 | 0.00 | 0.00 | 0.00 | 29 | 1011.6 |
| 20260503010002 | 20 | 40 | 0.0 | 3.2 | 0.00 | 0.00 | 0.00 | 28 | 1011.7 |
| 20260503005004 | 20 | 40 | 0.0 | 1.6 | 0.00 | 0.00 | 0.00 | 29 | 1011.8 |
| 20260503004000 | 20 | 40 | 1.6 | 6.4 | 0.00 | 0.00 | 0.00 | 29 | 1011.9 |
| 20260503003004 | 20 | 46 | 0.0 | 4.8 | 0.00 | 0.00 | 0.00 | 31 | 1012.0 |
| 20260503002000 | 20 | 298 | 0.0 | 8.0 | 0.00 | 0.00 | 0.00 | 30 | 1012.1 |
| 20260503001004 | 20 | 298 | 1.6 | 8.0 | 0.00 | 0.00 | 0.00 | 28 | 1012.2 |
| 20260503000005 | 20 | 281 | 1.6 | 6.4 | 0.00 | 0.00 | 0.00 | 28 | 1012.2 |
| 20260502235004 | 20 | 76 | 1.6 | 8.0 | 0.00 | 0.00 | 0.00 | 31 | 1012.2 |
| 20260502234004 | 20 | 355 | 1.6 | 4.8 | 0.00 | 0.00 | 0.00 | 31 | 1012.4 |
| 20260502233005 | 20 | 42 | 0.0 | 4.8 | 0.00 | 0.00 | 0.00 | 30 | 1012.4 |
| 20260502232000 | 20 | 48 | 1.6 | 6.4 | 0.00 | 0.00 | 0.00 | 30 | 1012.7 |
| 20260502231004 | 20 | 97 | 1.6 | 4.8 | 0.00 | 0.00 | 0.00 | 32 | 1012.8 |
| 20260502230000 | 19 | 44 | 1.6 | 3.2 | 0.00 | 0.00 | 0.00 | 31 | 1013.0 |
| 20260502224959 | 18 | 44 | 1.6 | 4.8 | 0.00 | 0.00 | 0.00 | 34 | 1013.1 |
| 20260502224004 | 18 | 265 | 1.6 | 12.9 | 0.00 | 0.00 | 0.00 | 32 | 1013.3 |
| 20260502222959 | 19 | 266 | 3.2 | 9.7 | 0.00 | 0.00 | 0.00 | 31 | 1013.4 |
| 20260502221959 | 19 | 53 | 1.6 | 6.4 | 0.00 | 0.00 | 0.00 | 34 | 1013.5 |
| 20260502221002 | 19 | 42 | 0.0 | 3.2 | 0.00 | 0.00 | 0.00 | 34 | 1013.7 |
| 20260502220000 | 18 | 293 | 3.2 | 9.7 | 0.00 | 0.00 | 0.00 | 36 | 1013.8 |
| 20260502215004 | 19 | 250 | 1.6 | 8.0 | 0.00 | 0.00 | 0.00 | 34 | 1013.9 |
| 20260502214004 | 18 | 69 | 1.6 | 9.7 | 0.00 | 0.00 | 0.00 | 34 | 1014.1 |
| 20260502213003 | 18 | 61 | 1.6 | 9.7 | 0.00 | 0.00 | 0.00 | 35 | 1014.2 |
| 20260502212000 | 18 | 22 | 1.6 | 12.9 | 0.00 | 0.00 | 0.00 | 36 | 1014.4 |
| 20260502211004 | 18 | 73 | 1.6 | 6.4 | 0.00 | 0.00 | 0.00 | 38 | 1014.6 |
| 20260502205959 | 18 | 35 | 1.6 | 9.7 | 0.00 | 0.00 | 0.00 | 39 | 1014.7 |
| 20260502204959 | 18 | 30 | 1.6 | 8.0 | 0.00 | 0.00 | 0.00 | 38 | 1014.9 |
| 20260502204004 | 17 | 51 | 1.6 | 8.0 | 0.00 | 0.00 | 0.00 | 39 | 1015.1 |
| 20260502202959 | 17 | 360 | 1.6 | 6.4 | 0.00 | 0.00 | 0.00 | 38 | 1015.3 |
| 20260502201959 | 17 | 63 | 3.2 | 9.7 | 0.00 | 0.00 | 0.00 | 39 | 1015.4 |
| 20260502201004 | 17 | 38 | 1.6 | 16.1 | 0.00 | 0.00 | 0.00 | 41 | 1015.5 |
| 20260502195959 | 16 | 92 | 1.6 | 11.3 | 0.00 | 0.00 | 0.00 | 39 | 1015.7 |
| 20260502194959 | 16 | 82 | 1.6 | 9.7 | 0.00 | 0.00 | 0.00 | 40 | 1015.9 |
| 20260502193959 | 15 | 323 | 1.6 | 4.8 | 0.00 | 0.00 | 0.00 | 41 | 1016.1 |
| 20260502192959 | 16 | 327 | 1.6 | 8.0 | 0.00 | 0.00 | 0.00 | 43 | 1016.2 |
| 20260502191959 | 16 | 72 | 1.6 | 6.4 | 0.00 | 0.00 | 0.00 | 43 | 1016.3 |
| 20260502190959 | 16 | 302 | 1.6 | 9.7 | 0.00 | 0.00 | 0.00 | 41 | 1016.4 |
| 20260502185959 | 16 | 26 | 3.2 | 9.7 | 0.00 | 0.00 | 0.00 | 41 | 1016.5 |
| 20260502184959 | 16 | 69 | 3.2 | 9.7 | 0.00 | 0.00 | 0.00 | 42 | 1016.7 |
| 20260502183958 | 16 | 27 | 1.6 | 8.0 | 0.00 | 0.00 | 0.00 | 43 | 1016.7 |
| 20260502182959 | 16 | 97 | 1.6 | 6.4 | 0.00 | 0.00 | 0.00 | 43 | 1016.9 |
| 20260502182004 | 15 | 65 | 1.6 | 14.5 | 0.00 | 0.00 | 0.00 | 43 | 1017.0 |
| 20260502180958 | 15 | 43 | 1.6 | 6.4 | 0.00 | 0.00 | 0.00 | 44 | 1017.3 |
| 20260502163959 | 13 | 12 | 1.6 | 6.4 | 0.00 | 0.00 | 0.00 | 49 | 1018.0 |
| 20260502162959 | 13 | 12 | 1.6 | 11.3 | 0.00 | 0.00 | 0.00 | 52 | 1018.2 |
| 20260502161959 | 12 | 49 | 0.0 | 6.4 | 0.00 | 0.00 | 0.00 | 52 | 1018.2 |
| 20260502161002 | 12 | 51 | 0.0 | 3.2 | 0.00 | 0.00 | 0.00 | 52 | 1018.3 |
| 20260502151959 | 9 | 253 | 0.0 | 3.2 | 0.00 | 0.00 | 0.00 | 60 | 1018.5 |
| 20260502151000 | 8 | 253 | 0.0 | 0.0 | 0.00 | 0.00 | 0.00 | 64 | 1018.5 |
| 20260502122959 | 6 | 254 | 0.0 | 0.0 | 0.00 | 0.00 | 0.00 | 69 | 1018.0 |
| 20260502122000 | 6 | 254 | 0.0 | 0.0 | 0.00 | 0.00 | 0.00 | 68 | 1018.0 |
| 20260502120958 | 6 | 254 | 0.0 | 0.0 | 0.00 | 0.00 | 0.00 | 68 | 1018.0 |
| 20260502114959 | 7 | 254 | 0.0 | 0.0 | 0.00 | 0.00 | 0.00 | 67 | 1018.0 |
| 20260502113958 | 7 | 254 | 0.0 | 0.0 | 0.00 | 0.00 | 0.00 | 66 | 1018.0 |
| 20260502112958 | 7 | 254 | 0.0 | 0.0 | 0.00 | 0.00 | 0.00 | 66 | 1017.9 |
| 20260502111958 | 7 | 254 | 0.0 | 0.0 | 0.00 | 0.00 | 0.00 | 65 | 1018.0 |
| 20260502110959 | 7 | 254 | 0.0 | 3.2 | 0.00 | 0.00 | 0.00 | 66 | 1017.9 |
| 20260502105958 | 7 | 254 | 0.0 | 1.6 | 0.00 | 0.00 | 0.00 | 66 | 1018.0 |
| 20260502104959 | 7 | 253 | 0.0 | 3.2 | 0.00 | 0.00 | 0.00 | 66 | 1018.0 |
| 20260502103958 | 7 | 253 | 0.0 | 3.2 | 0.00 | 0.00 | 0.00 | 66 | 1018.0 |
| 20260502102958 | 8 | 253 | 0.0 | 0.0 | 0.00 | 0.00 | 0.00 | 65 | 1018.1 |
| 20260502101957 | 8 | 253 | 0.0 | 1.6 | 0.00 | 0.00 | 0.00 | 65 | 1018.0 |
| 20260502100958 | 8 | 253 | 0.0 | 1.6 | 0.00 | 0.00 | 0.00 | 64 | 1018.1 |
| 20260502090958 | 8 | 74 | 0.0 | 6.4 | 0.00 | 0.00 | 0.00 | 70 | 1017.9 |
| 20260502070958 | 7 | 74 | 0.0 | 1.6 | 0.00 | 0.00 | 0.00 | 69 | 1017.8 |
| 20260502070004 | 7 | 74 | 0.0 | 0.0 | 0.00 | 0.00 | 0.00 | 69 | 1017.8 |
| 20260502064958 | 7 | 74 | 0.0 | 0.0 | 0.00 | 0.00 | 0.00 | 68 | 1017.7 |
| 20260502064000 | 8 | 74 | 0.0 | 1.6 | 0.00 | 0.00 | 0.00 | 68 | 1017.7 |
| 20260502062959 | 8 | 74 | 0.0 | 1.6 | 0.00 | 0.00 | 0.00 | 68 | 1017.7 |
| 20260502061959 | 8 | 74 | 0.0 | 0.0 | 0.00 | 0.00 | 0.00 | 67 | 1017.7 |
| 20260502061000 | 8 | 74 | 0.0 | 0.0 | 0.00 | 0.00 | 0.00 | 67 | 1017.6 |
| 20260502060004 | 8 | 74 | 0.0 | 0.0 | 0.00 | 0.00 | 0.00 | 67 | 1017.6 |
| 20260502055004 | 8 | 74 | 0.0 | 0.0 | 0.00 | 0.00 | 0.00 | 67 | 1017.6 |
| 20260502054000 | 8 | 74 | 0.0 | 0.0 | 0.00 | 0.00 | 0.00 | 66 | 1017.5 |
| 20260502053005 | 8 | 74 | 0.0 | 0.0 | 0.00 | 0.00 | 0.00 | 65 | 1017.5 |